User: anonymous   Login
Location: ????????
(54.8751°N, 38.5756°E)
Time: 14:05:30
(UTC+00:00)
Language:

Cosmos 1726 - Orbit

View from above orbital plane
View from above orbital plane
View from above satellite
View from above satellite

Ground track
Ground track

The orbit data is extracted from the following two-line orbital elements,

1 16495U 86006A   24173.89747555  .00047538  00000-0  56184-3 0  9996
2 16495  82.4585 359.0569 0006286 136.1382 224.0375 15.61079483107502
Epoch (UTC): 21 June 2024 21:32:21
Eccentricity: 0.0006286
inclination: 82.4585°
perigee height: 380 km
apogee height: 389 km
right ascension of ascending node: 359.0569°
argument of perigee: 136.1382°
revolutions per day: 15.61079483
mean anomaly at epoch: 224.0375°
orbit number at epoch: 10750

The dashed part of the orbit path shows where the satellite is in the earth's shadow,  

DLR